Tracking 17143 objects as of 26-May-2015
HD Live streaming from Space Station

TANSUO 2

Track TANSUO 2 now!
10-day predictions
TANSUO 2 is classified as:


NORAD ID: 28479
Int'l Code: 2004-046A
Perigee: 692.8 km
Apogee: 706.4 km
Inclination: 98.2 °
Period: 98.6 minutes
Semi major axis: 7070 km
RCS: 1.44 m2 (large)
Launch date: November 18, 2004
Source: People's Republic of China (PRC)
Your satellite tracking list
Your tracking list is empty





NASA's NSSDC Master Catalog

Two Line Element Set (TLE):
1 28479U 04046A   15146.18939583  .00000378  00000-0  88148-4 0  9998
2 28479 098.2377 157.3966 0009586 323.3830 036.6714 14.60221286559621

Source of the keplerian elements: AFSPC

N2YO: 379